STARLINK-3991 (52641 NORAD) Tracking and Keplerian Element Data

This shows tracking and keplerian element data for the satellite.

Feedback or suggestion? Click here.




ElementValue
Catalog52641
NameSTARLINK-3991
Epoch Orbit130
Epoch Day167.08334491
Epoch Year2022
RAAN279.9885
Inclination53.2142
Eccentricity0.0001371
Argument of Perigee32.2222
Mean Anonmoly10.4114
Mean Motion15.73219815
Decay Rate0.00053937
L11 52641U 22052AV 22167.08334491 .00053937 00000+0 38593-3 0 9996
L22 52641 53.2142 279.9885 0001371 32.2222 10.4114 15.73219815 1307

Live tracking and technical data element details for STARLINK-3991 (NORAD 52641). STARLINK-3991 can be tracked NOW for your location showing map with azimuth and elevation plus other details from your city location.

Track the satellite on the map from your city or location and see movement details for azimuth, elevation, latitude, longitude, range, height, and movement on the map or in text.







IsCatalogInMostPopularTable: catalog: 52641, numindb: 1
Update: records affected: 1



GetName: 52641 STARLINK-3991

Hit Count: updated at: Mon, 27 Jun 2022 05:31:54 GMT